Hurghada, Egypt

1:39 AM EET on July 24, 2017 (GMT +0200)
Hurghada

Weather History for HEGN - February, 2014

Change the Weather History Date:

Sunday, February 23, 2014

  Actual Average Record
Temperature  
Mean Temperature 70 °F -  
Max Temperature 80 °F 74 °F 86 °F (2007)
Min Temperature 61 °F 57 °F 48 °F (2004)
Cooling Degree Days 6    
Growing Degree Days 20 (Base 50)    
Moisture  
Dew Point 49 °F    
Average Humidity 45    
Maximum Humidity 72    
Minimum Humidity 18    
Precipitation  
Precipitation 0.00 in - - ()
Sea Level Pressure  
Sea Level Pressure 29.92 in    
Wind  
Wind Speed 14 mph ()    
Max Wind Speed 23 mph    
Max Gust Speed -    
Visibility 6.0 miles    
Events      
Averages and records for this station are not official NWS values.
T = Trace of Precipitation, MM = Missing Value Source: Averaged Metar Reports

Daily Weather History Graph

Daily Weather History Graph

Search for Another Location

Airport or City:

Trip Planner

Search our weather history database for the weather conditions in past years. The results will help you decide how hot, cold, wet, or windy it might be!

Date:

Astronomy

Feb. 23, 2014 Rise Set
Actual Time 6:15 AM EET 5:42 PM EET
Civil Twilight 5:51 AM EET 6:05 PM EET
Nautical Twilight 5:24 AM EET 6:32 PM EET
Astronomical Twilight 4:57 AM EET 6:59 PM EET
Moon 12:37 AM EET 11:41 AM EET
Length of Visible Light 12h 14m
Length of Day
11h 26m
Last Quarter, 42% of the Moon is Illuminated
Feb 23
Last Quarter
Mar 1
New
Mar 8
First Quarter
Mar 16
Full
Mar 24
Last Quarter

Hourly Weather History & Observations

Time (EET) Temp. Dew Point Humidity Pressure Visibility Wind Dir Wind Speed Gust Speed Precip Events Conditions
12:00 AM 71.6 °F 51.8 °F 50% 29.92 in - North 13.8 mph - N/A   Clear
1:00 AM 69.8 °F 50.0 °F 49% 29.92 in - North 12.7 mph - N/A   Clear
2:00 AM 68 °F 52 °F 46% 29.92 in 6 mi North 17.3 mph - -  
2:00 AM 68.0 °F 51.8 °F 56% 29.92 in - North 17.3 mph - N/A   Clear
3:00 AM 66.2 °F 46.4 °F 49% 29.92 in - NNW 15.0 mph - N/A   Clear
3:08 AM - - N/A% - - NNW 15.0 mph - N/A   Clear
4:00 AM 68.0 °F 44.6 °F 43% 29.92 in - NNW 19.6 mph - N/A   Clear
5:00 AM 67 °F 46 °F 36% 29.93 in 6 mi NNW 17.3 mph - -  
5:00 AM 66.2 °F 46.4 °F 49% 29.92 in - NNW 17.3 mph - N/A   Clear
6:00 AM 60.8 °F 42.8 °F 52% 29.95 in - NW 10.4 mph - N/A   Clear
7:00 AM 60.8 °F 51.8 °F 72% 29.95 in - WNW 16.1 mph - N/A   Clear
8:00 AM 65 °F 52 °F 54% 29.98 in 6 mi NW 13.8 mph - -  
8:00 AM 64.4 °F 51.8 °F 64% 29.98 in - NW 13.8 mph - N/A   Clear
9:00 AM 71.6 °F 51.8 °F 50% 29.98 in - NNW 20.7 mph - N/A   Clear
10:00 AM 73.4 °F 51.8 °F 47% 29.98 in - North 23.0 mph - N/A   Clear
11:00 AM 74 °F 51 °F 34% 29.96 in 6 mi North 23.0 mph - -  
11:00 AM 75.2 °F 51.8 °F 44% 29.95 in - West 23.0 mph - N/A   Clear
12:00 PM - - N/A% 29.92 in - North - - N/A   Clear
1:00 PM 78.8 °F 50.0 °F 36% 29.89 in - NNE 16.1 mph - N/A   Clear
2:00 PM 80 °F 49 °F 24% 29.88 in 6 mi North 20.7 mph - -  
2:00 PM 80.6 °F 50.0 °F 34% 29.86 in - North 20.7 mph - N/A   Clear
3:00 PM 78.8 °F 48.2 °F 34% 29.86 in - NNE 13.8 mph - N/A   Clear
4:00 PM 80.6 °F 50.0 °F 34% 29.86 in - North 20.7 mph - N/A   Clear
5:00 PM 76 °F 41 °F 18% 29.86 in 6 mi 15.0 mph - -  
5:00 PM 77.0 °F 41.0 °F 28% 29.86 in - North 17.3 mph - N/A   Clear
6:00 PM 71.6 °F 53.6 °F 53% 29.89 in - North 9.2 mph - N/A   Clear
7:00 PM 69.8 °F 55.4 °F 60% 29.89 in - North 6.9 mph - N/A   Clear
8:00 PM 69 °F 48 °F 36% 29.92 in 6 mi 17.3 mph - -  
8:00 PM 68.0 °F 48.2 °F 49% 29.92 in - NW 17.3 mph - N/A   Clear
9:00 PM 68.0 °F 50.0 °F 52% 29.92 in - WNW 15.0 mph - N/A   Clear
10:00 PM 66.2 °F 46.4 °F 49% 29.92 in - WNW 12.7 mph - N/A   Clear
11:00 PM 65 °F 47 °F 40% 29.93 in 6 mi WNW 8.1 mph - -  
11:00 PM 66.2 °F 46.4 °F 49% 29.92 in - WNW 8.1 mph - N/A   Clear